Regional Weather Roundup
Issued by NWS

Home | Current Version | Previous Version | Graphics & Text | Print | Product List | Glossary On
Versions: 1 2 3 4 5 6 7 8 9 10 11 12 13 14 15 16 17 18 19 20 21 22 23 24 25 26 27 28 29 30 31 32 33 34 35 36 37 38 39 40 41 42 43 44 45 46 47 48 49 50
000
ASUS43 KMKX 020200
RWRWI

WISCONSIN REGIONAL WEATHER ROUNDUP
NATIONAL WEATHER SERVICE MILWAUKEE/SULLIVAN WI
900 PM CDT TUE SEP 01 2015

NOTE: "FAIR" INDICATES FEW OR NO CLOUDS BELOW 12,000 FEET WITH NO
SIGNIFICANT WEATHER AND/OR OBSTRUCTIONS TO VISIBILITY.

WIZ001-002-006>008-014>016-023>028-020300-
NORTHWEST WISCONSIN

CITY           SKY/WX    TMP DP  RH WIND       PRES   REMARKS
SUPERIOR ARPT  CLEAR     71  71  99 CALM      29.91R
ASHLAND        MOCLDY    72  71  97 CALM      29.94R
HAYWARD        MOCLDY    74  71  91 CALM      29.95S
SIREN          FAIR      76  73  89 CALM      29.94R
CUMBERLAND     MOCLDY    73  72  94 CALM      29.95R
RICE LAKE      MOCLDY    74  72  92 CALM      29.95S FOG
CHETEK         MOCLDY   N/A N/A N/A CALM      29.94R
LADYSMITH      CLOUDY    74  73  93 CALM      29.97S
EAU CLAIRE     NOT AVBL
MENOMONIE      MOCLDY    78  74  89 SE3       29.93R HX  80
NEW RICHMOND   CLOUDY    77  75  94 CALM      29.93R
OSCEOLA        MOCLDY    76  76 100 CALM      29.94S
$$

WIZ003>005-009-010-017-018-020300-
NORTH CENTRAL WISCONSIN

CITY           SKY/WX    TMP DP  RH WIND       PRES   REMARKS
MANITOWISH WTR PTCLDY    69  69 100 CALM      29.98S FOG
ARBOR VITAE    PTCLDY    72  70  93 CALM      29.99R
WOODRUFF       PTCLDY    72  70  93 CALM      29.99R
RHINELANDER    MOCLDY    71  68  90 CALM      30.00R FOG
EAGLE RIVER    PTCLDY    69  68  98 CALM      29.99R
LAND O LAKES   PTCLDY    68  66  96 CALM      30.00R FOG
PHILLIPS       MOCLDY    72  71  96 CALM      29.97R
TOMAHAWK       CLOUDY    71  69  95 CALM      29.98R FOG
MEDFORD        CLOUDY    70  70 100 CALM      29.98R FOG
MERRILL        CLOUDY    74  73  98 CALM      29.97R
$$

WIZ029-030-035-036-043>047-020300-
CENTRAL WISCONSIN

CITY           SKY/WX    TMP DP  RH WIND       PRES   REMARKS
WAUSAU         CLOUDY    77  71  82 CALM      29.95R
MOSINEE        PTCLDY    73  73 100 S3        29.98R
MARSHFIELD     MOCLDY    75  69  81 CALM      29.97R
STEVENS POINT  MOCLDY    76  70  83 S3        29.97R
WAUPACA        PTCLDY    78  75  91 CALM      29.96R HX  81
WAUTOMA        NOT AVBL
WISC RAPIDS    MOCLDY    75  70  84 CALM      29.97R
CAMP DOUGLAS   NOT AVBL
$$

WIZ011>013-019>022-031-037>040-048>050-020300-
NORTHEAST WISCONSIN

CITY           SKY/WX    TMP DP  RH WIND       PRES   REMARKS
ANTIGO         MOCLDY    73  70  93 CALM      29.99R
SHAWANO        PTCLDY    79  71  77 CALM      29.95R HX  82
OCONTO         CLOUDY    74  74 100 CALM      29.93S
STURGEON BAY   PTCLDY    72  64  78 S7        29.98S
GREEN BAY      PTCLDY    76  71  85 S5        29.96R
MANITOWOC      NOT AVBL
APPLETON       MOCLDY    75  68  78 VRB6      29.96R
CLINTONVILLE   PTCLDY    75  70  83 CALM      29.95R
OSHKOSH        PTCLDY    76  71  85 S7        29.96R
$$

WIZ032>034-041-042-053>061-020300-
SOUTHWEST WISCONSIN

CITY           SKY/WX    TMP DP  RH WIND       PRES   REMARKS
LA CROSSE      MOCLDY    79  73  82 SE5       29.93R HX  82
SPARTA         MOCLDY    78  70  76 S3        29.95S HX  80
VIROQUA          N/A     76  74  95 S5        29.98R
BOSCOBEL       MOCLDY    78  74  87 SW3       29.96R HX  81
PRAIRIE DU CHI CLOUDY    80  72  75 CALM      29.96R HX  83
PLATTEVILLE    MOCLDY    76  73  93 S6        29.99R
$$

WIZ056-057-062-063-064-067-068-020300-
SOUTH CENTRAL WISCONSIN

CITY           SKY/WX    TMP DP  RH WIND       PRES   REMARKS
REEDSBURG      MOCLDY    78  73  84 CALM      29.96R HX  81
BARABOO/DELLS  MOCLDY    77  70  77 S3        29.97S
LONE ROCK      NOT AVBL
MINERAL POINT  MOCLDY    77  73  88 S6        30.00R
MADISON        CLEAR     77  71  82 CALM      29.98R
MIDDLETON      CLEAR     74  72  94 CALM      29.99R
WATERTOWN      CLEAR     73  73 100 CALM      29.98R
MONROE         CLEAR     77  72  83 SW10      29.99S
JANESVILLE     CLEAR     79  72  78 SW6       29.98R HX  82
$$

WIZ051-052-058>065-066-070>072-020300-
SOUTHEAST WISCONSIN

CITY           SKY/WX    TMP DP  RH WIND       PRES   REMARKS
MILWAUKEE      PTCLDY    80  70  71 S6        29.98S HX  83
WAUKESHA       NOT AVBL
MILWAUKEE/TIMM CLEAR     81  68  65 S5        29.99R HX  83
RACINE         CLEAR     79  69  71 S5        30.01R HX  81
BURLINGTON     CLEAR     72  70  94 CALM      29.99S
KENOSHA        CLEAR     79  70  74 S7        30.00R HX  82
FOND DU LAC    PTCLDY    76  72  87 S6        29.97R
SHEBOYGAN      CLEAR     73  69  87 CALM      29.98R FOG
WEST BEND      CLEAR     73  70  88 CALM      29.99R
JUNEAU         CLEAR     76  71  84 S6        30.00R
$$

LSZ147-162-020300-
LAKE SUPERIOR

STATION/POSITION TIME  TEMP    WIND        PRES    WAVE
                       AIR SEA DIR/SP/G            HT/PER
                 (UTC) (F)     (DEG/KT/KT) (MB)    (FT/S)
W MID LAKE BUOY  0050   60 56  250/  4/  4 1012.8R   0
DEVILS ISLAND    0100   66     100/  5/  6 1012.8R
PORT WING        0140   74     100/  2/  4 1013.2R
SAXON HARBOR     0140   70        CALM     1012.9R
$$

LMZ867-665-643>646-020300-
LAKE MICHIGAN

STATION/POSITION TIME  TEMP    WIND        PRES    WAVE
                       AIR SEA DIR/SP/G            HT/PER
                 (UTC) (F)     (DEG/KT/KT) (MB)    (FT/S)
CHAMBERS ISLAND  0100   75     160/  3/  5 1013.9R
S GREEN BAY BUOY 0100   72 67  170/  4/  6 1015.2R
N MID LAKE BUOY  0050   67 65  200/ 16/ 17 1013.6R   2/ 4
NORTHPORT PIER   0100   67     180/  6/  8 1013.9R
SISTER BAY       0104   67     160/ 10/ 12   N/A
ALGOMA LAKESHORE 0114          220/  5/  7   N/A
KEWAUNEE LAKESHO 0100   51     170/  2/  3 1013.4R
SHEBOYGAN LAKESH 0100   69     180/  7/  8 1014.7R
PORT WASHINGTON  0100   62     160/  1/  2 1015.6
ATWATER BUOY     0100   60 50  160/  6/  8 1016.5R
MILWAUKEE LAKESH 0110          160/  1/  2   N/A
S MID LAKE BUOY  0050   74 70  180/ 10/ 12 1015.2R
KENOSHA   LAKESH 0100   83     200/  7/  8 1014.9S
$$

TC  - TEMPERATURE IN CELSIUS
VSB - VISIBILITY IN STATUTE MILES
WCI - WIND CHILL INDEX
HX  - HEAT INDEX



USA.gov is the U.S. government's official web portal to all federal, state and local government web resources and services.